Location: Uzundamlar
(36.6000°N, 30.3000°E)
Time: 18:59:59
(UTC+00:00)

Daily predictions for brighter satellites

Satellite Brightness Start Highest point End
(mag) Time Altitude Azimuth Time Altitude Azimuth Time Altitude Azimuth
Cosmos 2333 Rocket 2.6 17:44:43 10° S 17:50:04 42° ESE 17:55:25 10° NE
Meteor 2-20 4.5 17:45:16 10° S 17:51:21 84° E 17:57:27 10° N
SJ-6B 2.9 17:47:20 10° SSE 17:51:23 78° ENE 17:55:24 10° N
Cosmos 1844 4.5 17:49:54 10° N 17:55:04 37° ENE 18:00:14 10° SE
Cosmos 1674 3.0 17:52:22 10° SSE 17:55:52 42° E 17:59:23 10° NNE
Cosmos 1455 Rocket 4.1 17:52:55 10° NNE 17:56:53 31° ENE 18:00:50 10° SE
Cosmos 2360 Rocket 2.6 17:53:41 10° SSW 17:59:18 70° WNW 18:04:56 10° NNE
ASTRO E2 3.4 17:56:22 10° WSW 18:00:02 37° S 18:03:42 10° ESE
Cosmos 1331 Rocket 4.0 17:56:34 10° SSW 18:01:47 80° ESE 18:07:05 10° NNE
Okean 1 Rocket 3.5 17:57:30 10° NNW 18:01:52 65° W 18:06:15 10° S
X-37B 0.6 17:59:39 10° SW 18:02:46 59° SSE 18:05:54 10° ENE
USA 186 3.1 18:00:09 10° SSW 18:02:56 37° W 18:05:54 10° NNW
USA 81 4.1 17:58:56 10° N 18:04:10 61° E 18:09:21 10° SSE
Cosmos 1025 Rocket 3.8 18:01:00 10° SSE 18:04:53 32° E 18:08:46 10° NNE
Cosmos 1850 Rocket 4.0 18:00:30 10° NNW 18:05:47 79° ENE 18:11:00 10° SSE
Cosmos 2322 Rocket 4.1 18:01:12 10° SW 18:06:21 35° WNW 18:11:32 10° N
KORONAS-FOTON 3.7 18:04:22 10° S 18:08:06 65° E 18:11:51 10° NNE
IRS-1A Rocket 4.4 18:02:18 10° SSE 18:08:07 70° ENE 18:13:50 10° N
Cosmos 1315 Rocket 4.1 18:09:56 10° NNW 18:13:50 43° W 18:17:40 10° SSW
SL-4 R/B 2.3 18:10:11 10° SW 18:14:38 76° NW 18:18:47 10° NE
Cosmos 1340 3.6 18:12:43 10° SSE 18:15:54 29° E 18:19:12 10° NNE
Uosat 12 SS-18 rocket 4.0 18:16:01 10° SSW 18:20:12 66° ESE 18:24:52 10° NE
Cosmos 2100 Rocket 4.2 18:15:08 10° N 18:21:21 55° E 18:27:12 11° SSE
Resurs 1-3 3.7 18:21:16 10° S 18:25:39 79° W 18:30:03 10° NNW
Cosmos 1626 2.1 18:22:24 10° S 18:26:00 57° E 18:29:39 10° NNE
Cosmos 1302 Rocket 4.0 18:21:09 10° S 18:26:20 65° ESE 18:31:31 10° NNE
Cosmos 2173 Rocket 4.2 18:21:29 10° N 18:27:47 59° E 18:33:28 13° SSE
Cosmos 1844 Rocket 2.7 18:23:59 10° NNW 18:29:42 90° SE 18:34:41 14° SSE
SL-14 R/B 3.8 18:29:20 14° SSE 18:32:25 42° E 18:36:13 10° NNE
DNEPR-1 R/B 4.2 18:30:16 10° NNW 18:34:21 43° ENE 18:37:15 19° ESE
Cosmos 2322 3.9 18:31:02 10° SSW 18:36:40 76° WNW 18:42:20 10° NNE
GENESIS II 4.2 18:32:57 10° SSW 18:36:46 59° ESE 18:40:36 10° NE
Meteor 1-16 Rocket 4.1 18:31:51 10° N 18:37:14 88° ENE 18:42:06 12° S
Ariane Rocket 3.4 18:32:40 10° S 18:37:43 64° WSW 18:42:47 10° NNW
Cosmos 2278 Rocket 4.0 18:34:51 10° NNE 18:38:38 18° NE 18:42:04 11° E
SPOT 1/Viking Rocket 4.1 18:35:46 18° SE 18:39:10 43° ENE 18:44:01 10° N
Terra 3.9 18:37:39 10° E 18:39:43 13° ENE 18:41:46 10° NE
COSMOS 2428 2.7 18:37:13 10° SSW 18:42:57 82° ESE 18:48:43 10° NNE
Cosmos 1975 Rocket 4.4 18:41:34 10° SSW 18:45:39 39° W 18:49:49 10° N
Cosmos 1900 4.4 18:41:50 10° NNW 18:46:43 76° WSW 18:49:58 21° SSE
ATLAS CENTAUR R/B 1.6 18:43:50 10° NNW 18:48:19 89° ENE 18:51:05 24° SSE
ATLAS 3B R/B 3.5 18:42:03 10° SW 18:48:22 52° NW 18:54:54 10° NNE
Cosmos 1725 Rocket 4.3 18:44:11 10° N 18:50:10 48° E 18:53:55 22° SE
Cosmos 968 Rocket 4.3 18:46:42 10° N 18:51:26 36° ENE 18:53:55 23° ESE
SL-12 R/B (Aux Motor) 3.8 18:50:52 10° WSW 18:52:43 71° NNW 18:55:52 10° NE
NOSS 0 Rocket 4.1 18:48:00 10° S 18:53:55 50° ESE 18:59:54 10° NE
IGS 5A 3.8 18:53:29 18° S 18:56:30 64° W 19:00:39 10° NNW
Cosmos 1953 3.2 18:54:26 10° NNW 18:58:20 47° W 19:01:35 14° SSW
SL-8 R/B 4.2 18:56:49 10° WNW 19:01:24 47° SW 19:03:35 27° SSE
Cosmos 1459 Rocket 4.1 18:57:11 10° N 19:03:14 74° W 19:08:20 15° S
Cosmos 1908 4.3 19:00:58 10° NNW 19:04:36 41° W 19:07:22 16° SSW
Cosmos 1992 Rocket 4.0 19:01:31 18° S 19:05:15 59° ESE 19:10:23 10° NNE
SPOT 5 3.8 19:04:11 26° ESE 19:06:04 34° ENE 19:10:24 10° N
Landsat 7 4.2 19:03:20 19° S 19:06:41 62° W 19:11:25 10° NNW
SPOT 3 Rocket 3.9 19:05:39 19° S 19:09:21 63° WSW 19:14:31 10° NNW
Cosmos 1980 3.8 19:07:54 22° S 19:11:25 53° ESE 19:16:57 10° NNE
Cosmos 389 Rocket 4.2 19:09:04 10° NNE 19:11:30 20° ENE 19:11:30 20° ENE
Cosmos 1486 Rocket 4.5 19:10:14 10° N 19:15:13 45° ENE 19:17:03 32° ESE
Cosmos 2219 Rocket 3.5 19:10:59 10° SW 19:16:18 41° WNW 19:21:40 10° N
Cosmos 1802 Rocket 4.3 19:12:26 10° NNW 19:18:44 70° W 19:23:24 19° S
Resurs 01 Rocket 3.1 19:18:16 14° SSW 19:21:26 32° W 19:25:24 10° NNW
ATLAS CENTAUR R/B 2.9 19:21:46 35° ESE 19:21:46 35° ESE 19:28:05 10° NE
Cosmos 1867 3.7 19:18:03 10° NNW 19:23:32 66° ENE 19:25:36 37° SE
ERS-1 Rocket 3.2 19:23:38 38° SE 19:25:16 55° ENE 19:30:12 10° N
Cosmos 2333 Rocket 4.4 19:29:44 10° WSW 19:34:27 26° WNW 19:39:11 10° N
Cosmos 1606 Rocket 4.2 19:31:15 10° N 19:35:24 38° E 19:35:40 38° E
Cosmos 405 4.1 19:33:56 10° NNW 19:37:07 36° W 19:37:48 32° WSW
Cosmos 1892 Rocket 4.3 19:38:13 36° E 19:38:13 36° E 19:42:04 10° NNE
X-37B 2.8 19:36:49 10° WNW 19:39:34 26° NNW 19:42:20 10° NE
Cosmos 1346 Rocket 2.7 19:38:52 59° SSW 19:39:35 83° W 19:43:38 10° N
Cosmos 967 Rocket 4.5 19:33:22 10° NNW 19:39:46 84° WSW 19:42:16 40° SSE
Spot 2 Rocket 3.6 19:39:11 38° S 19:41:04 68° WSW 19:46:09 10° NNW
Cosmos 2237 Rocket 2.1 19:39:44 23° SSW 19:43:21 87° WNW 19:49:00 10° NNE
SL-16 R/B 3.2 19:44:50 29° E 19:44:50 29° E 19:49:11 10° NE
Cosmos 1455 3.6 19:45:11 10° NNE 19:47:45 27° NE 19:47:45 27° NE
Cosmos 2228 2.9 19:45:32 10° N 19:49:56 73° E 19:50:12 70° ESE
H-2A R/B 3.5 19:46:31 10° NNE 19:50:19 62° ENE 19:50:19 62° ENE
Cosmos 2233 Rocket 3.9 19:45:14 10° N 19:51:26 83° W 19:53:48 41° S
Cosmos 1607 4.2 19:46:15 10° NNW 19:52:33 59° ENE 19:54:32 41° ESE
ARIANE 5 R/B 3.3 19:56:01 41° SW 19:56:59 48° W 20:01:21 10° NNW
Cosmos 1447 Rocket 4.5 19:54:23 34° SSW 19:57:18 78° W 20:03:29 10° N
DELTA 2 R/B (1) 3.4 19:54:18 10° SW 19:59:47 63° SSE 20:00:33 57° ESE
Cosmos 1300 4.3 19:58:24 10° NNW 20:01:36 26° W 20:02:18 24° WSW
Meteor 2-10 Rocket 3.5 20:00:44 10° NNW 20:05:43 70° W 20:06:33 57° SSW
Cosmos 1503 Rocket 3.9 20:10:46 10° NNW 20:16:10 86° WSW 20:16:42 73° S
Terra 1.9 20:16:31 60° SW 20:16:52 63° W 20:21:36 10° NNW
Cosmos 1072 Rocket 4.5 20:15:20 10° N 20:21:40 66° E 20:22:39 58° SE
Cosmos 2278 Rocket 2.3 20:17:34 10° NNW 20:23:10 63° WSW 20:23:54 57° SW
Cosmos 1943 Rocket 3.5 20:25:41 10° N 20:30:17 26° ENE 20:31:11 25° ENE
Celestis-02/Orion 38 4.4 20:36:22 87° E 20:36:25 87° ENE 20:41:36 10° NNW
USA 229 DEB 3.4 20:42:46 65° ESE 20:42:47 65° ESE 20:49:23 10° NE
USA 229 3.5 20:42:55 64° ESE 20:42:55 64° ESE 20:49:29 10° NE
Cosmos 1464 Rocket 3.9 20:40:46 10° N 20:47:10 85° W 20:47:58 70° S
NOSS 3-1 (C) 3.3 20:48:09 59° WSW 20:48:57 68° NW 20:54:52 10° NNE
Cosmos 1777 Rocket 4.0 20:50:47 10° NNW 20:55:44 78° N 20:55:44 78° N
Cosmos 1816 Rocket 4.3 20:58:39 81° S 20:59:00 89° E 21:05:09 10° N
SJ 16-02 2.5 20:58:17 10° N 21:01:23 38° NNE 21:01:23 38° NNE
NOSS 3-1 (A) 3.2 21:03:22 71° NE 21:03:22 71° NE 21:08:40 10° NNE
Meteor 1-11 4.3 21:04:58 67° ENE 21:04:58 67° ENE 21:10:04 10° NNE
Cosmos 2058 Rocket 4.4 21:02:56 10° NNW 21:06:09 34° WNW 21:06:09 34° WNW
USA 215 3.1 21:03:47 10° NE 21:10:21 87° SE 21:11:27 65° SW
X-37B 4.0 21:14:39 10° NW 21:15:07 12° NW 21:15:07 12° NW
Cosmos 2034 Rocket 4.2 21:19:51 10° NNW 21:25:52 58° W 21:26:04 58° W
SL-16 R/B 3.5 21:26:40 29° W 21:28:17 34° WNW 21:33:25 10° N
ATLAS 5 CENTAUR R/B 4.2 21:31:36 10° ENE 21:31:36 10° ENE 21:31:38 10° ENE
GP-B 4.3 21:34:40 10° N 21:37:35 40° NNE 21:37:35 40° NNE
Cosmos 2369 Rocket 2.7 21:34:24 10° NNW 21:39:58 51° ENE 21:39:58 51° ENE
ALOS 2 3.8 21:43:59 39° NNW 21:43:59 39° NNW 21:46:49 10° NNW
DELTA 2 R/B (1) 4.3 21:40:45 10° W 21:47:52 45° ENE 21:51:48 10° ENE
Cosmos-2242 4.3 21:43:27 10° N 21:46:15 39° N 21:46:15 39° N
Cosmos 468 Rocket 4.4 21:49:03 60° N 21:49:03 60° N 21:53:25 10° NNE
Cosmos 2142 Rocket 4.5 21:46:39 10° N 21:52:44 69° E 21:52:44 69° E
Cosmos 1763 Rocket 4.0 21:55:39 55° NNW 21:55:39 55° NNW 21:59:55 10° NNE
Cosmos 1943 Rocket 3.3 22:09:01 10° NW 22:12:41 33° WNW 22:12:41 33° WNW
CZ-2D R/B 4.3 22:12:02 10° ENE 22:14:07 13° E 22:14:07 13° E
Cosmos 2221 4.2 22:13:40 10° NNE 22:16:20 29° NE 22:16:20 29° NE
Cosmos 2098 Rocket 4.4 22:20:14 38° NE 22:20:14 38° NE 22:23:06 10° NNE
Meteor 2-13 Rocket 4.4 22:19:12 74° WNW 22:19:12 74° WNW 22:25:17 10° N
Cosmos 540 Rocket 3.9 22:21:16 57° NNW 22:21:16 57° NNW 22:25:28 10° NNE
Cosmos 2180 Rocket 4.4 22:15:58 10° N 22:22:21 83° E 22:22:24 83° E
Lacrosse 4 Rocket 3.4 22:21:23 10° N 22:24:15 23° NE 22:24:15 23° NE
Cosmos 2279 Rocket 4.1 22:25:32 10° NNW 22:31:28 62° W 22:31:28 62° W
CZ-4C R/B 4.0 22:37:57 17° E 22:37:57 17° E 22:40:08 10° ENE
Cosmos 1943 4.1 22:36:58 38° WNW 22:37:18 38° WNW 22:42:33 10° N
Cosmos 1825 4.4 22:40:05 22° NNW 22:40:05 22° NNW 22:41:42 10° N
GEOS 3 Rocket 4.4 22:40:05 42° WNW 22:40:05 42° WNW 22:43:50 10° NW
Cosmos 1656 Rocket 3.9 22:38:23 10° NNW 22:43:14 62° NW 22:43:14 62° NW
Cosmos 841 Rocket 4.2 22:48:09 44° NW 22:48:09 44° NW 22:52:37 10° N
Nadezhda 4 Rocket 4.1 23:01:16 58° W 23:01:25 58° W 23:07:27 10° N
Cosmos 2026 Rocket 4.1 23:01:09 60° SE 23:01:52 64° E 23:08:09 10° NNE
Meteor 2-3 Rocket 4.2 23:09:48 48° ESE 23:10:13 49° E 23:15:35 10° NNE
ATLAS 5 CENTAUR R/B 3.3 23:13:06 23° NW 23:13:06 23° NW 23:16:14 10° N
Cosmos 2151 3.8 23:14:34 48° NNE 23:14:34 48° NNE 23:17:41 10° N
Meteor 2-19 Rocket 4.3 23:13:12 75° SW 23:13:37 79° W 23:19:45 10° N
Resurs 1-4 Rocket 2.3 23:14:13 10° NNE 23:19:29 60° E 23:19:41 59° ESE
ADEOS II 3.5 23:16:41 10° NE 23:21:05 26° E 23:22:04 25° ESE
USA 267 3.1 23:20:03 31° SE 23:23:29 89° NE 23:30:04 10° NW
Cosmos 2369 Rocket 4.1 23:19:35 10° NW 23:21:44 17° WNW 23:21:44 17° WNW
Tianhe-1 4.1 23:29:49 14° ENE 23:29:49 14° ENE 23:30:18 10° ENE
Lacrosse 5 rocket 4.0 23:28:25 10° N 23:30:43 16° NE 23:33:03 10° ENE
DELTA 2 R/B (1) 3.7 23:28:35 16° WNW 23:33:01 73° N 23:38:34 10° E
Cosmos 1766 Rocket 4.4 23:34:47 43° E 23:34:51 43° E 23:39:06 10° NNE
Cosmos 1833 Rocket 3.9 23:38:15 28° SE 23:39:33 31° ESE 23:44:26 10° NE
Helios 1B rocket 2.9 23:36:13 10° NNE 23:39:45 58° ENE 23:39:45 58° ENE
Cosmos 2084 Rocket 4.1 23:41:27 46° ENE 23:41:27 46° ENE 23:44:24 10° NE
Aureole 3 Rocket 4.0 23:42:20 10° NNW 23:47:08 51° W 23:47:24 50° WSW
Cosmos 1809 Rocket 4.4 23:46:31 56° S 23:47:56 87° E 23:54:10 10° N
Cosmos 2298 Rocket 3.9 23:45:33 10° NNW 23:50:53 78° WSW 23:51:24 70° SSW
Cosmos 1125 Rocket 3.5 23:48:16 10° NNW 23:53:34 83° ENE 23:54:49 54° SSE
